SCP
0 0 -0 -0 -0 -0 -0 -0 -0 -0 0 0 0 -0 -0 0 0 0 0 0 -0 -0 -0 -0 0 0 0 0 0 0 0 0 0 0 0 -0 -0 -0 -0 -0 -0 -0 -0
0 -0 -0 -0 -0 -0 -0 -0 -0 -0 -0 -0 -0 -0 -0 -0 -0 0 0 -0 -0 -0 0 -0 0 0 -0 0 0 0 0 0 0 0 0 0 0 0 -0 -0 -0 -0 -0
0 0 -0 -0 -0 -0 -0 -0 -0 -0 -0 -0 -0 -0 -0 -0 -0 -0 -0 -0 -0 -0 0 0 -0 0 0 0 0 0 0 0 0 0 0 0 0 0 0 0 0 -0 -0
0 -0 -0 0 -0 -0 -0 -0 -0 -0 -0 -0 -0 -0 -0 -0 -0 -0 -0 -0 -0 -0 -0 -0 -0 -0 0 0 0 0 0 0 0 0 0 0 0 0 0 0 0 0 0
-0 -0 -0 -0 -0 -0 -0 -0 -0 -0 -0 -0 -0 -0 -0 -0 -0 -0 -0 -0 -0 -0 -0 -0 -0 -0 0 0 0 0 0 0 0 0 0 0 0 0 0 0 0 0 0
-0 -0 -0 -0 -0 -0 -0 -0 -0 -0 -0 -0 -0 -0 -0 -0 -0 -0 -0 0 -0 0 0 0 0 0 0 0 0 0 0 0 0 0 0 0 0 0 0 0 0 0 0
0 0 0 -0 -0 -0 -0 -0 -0 -0 -0 -0 0 0 -0 0 0 0 0 0 0 0 0 0 0 0 0 0 0 0 0 0 0 0 0 0 0 0 0 0 0 0 0
0 0 -0 -0 0 0 0 -0 -0 -0 -0 -0 -0 0 0 0 0 0 0 0 0 0 0 0 0 0 0 0 0 0 0 0 0 0 0 0 0 0 0 0 0 0 0
0 0 0 0 0 -0 0 0 0 0 0 0 0 0 0 0 0 0 0 0 0 0 0 0 0 0 0 0 0 0 0 0 0 0 0 0 0 0 0 0 0 0 0
0 0 0 0 0 0 0 0 0 0 0 0 0 0 0 0 0 0 0 0 0 0 0 0 0 0 0 0 0 0 0 0 0 0 0 0 0 0 0 0 0 0 0
0 0 0 0 0 0 0 0 0 0 0 0 0 0 0 0 0 0 0 0 0 0 0 0 0 0 0 0 0 0 0 0 0 0 0 0 0 0 0 0 0 0 0
0 0 0 0 0 0 0 0 0 0 0 0 0 0 0 0 0 0 0 0 0 0 0 0 0 0 0 0 0 0 0 0 0 0 0 0 0 0 0 0 0 0 0
0 0 0 0 0 0 0 0 0 0 0 0 0 0 0 0 0 0 0 0 0 0 0 0 0 0 0 0 0 0 0 0 0 0 0 0 0 0 0 0 0 0 0
0 0 0 0 0 0 0 0 0 0 0 0 0 0 0 0 0 0 0 0 0 0 0 0 0 0 0 0 0 0 0 0 0 0 0 0 0 0 0 0 0 0 0
0 0 0 0 0 0 0 0 0 0 0 0 0 0 0 0 0 0 0 0 0 0 0 0 0 0 0 0 0 0 0 0 0 0 0 0 0 0 0 0 0 0 0
0 0 0 0 0 0 0 0 0 0 0 0 0 0 0 0 0 0 0 0 0 0 0 0 0 0 0 0 0 0 0 0 0 0 0 0 0 0 0 0 0 0 0
0 0 0 0 0 0 0 0 0 0 0 0 0 0 0 0 0 0 0 0 0 0 0 0 0 0 0 0 0 0 0 0 0 0 0 0 0 0 0 0 0 0 0
0 0 0 0 0 0 0 0 0 0 0 0 0 0 0 0 0 0 0 0 0 0 0 0 0 0 0 0 0 0 0 0 0 0 0 0 0 0 0 0 0 0 0
0 0 0 0 0 0 0 0 0 0 0 0 0 0 0 0 0 0 0 0 0 0 0 0 0 0 0 0 0 0 0 0 0 0 0 0 0 0 0 0 0 0 0
0 0 0 0 0 0 0 0 0 0 0 0 0 0 0 0 0 0 0 0 0 0 0 0 0 0 0 0 0 0 0 0 0 0 0 0 0 0 0 0 0 0 0
0 0 0 0 0 0 0 0 0 0 0 0 0 0 0 0 0 0 0 0 0 0 0 0 0 0 0 0 0 0 0 0 0 0 0 0 0 0 0 0 0 0 0
0 0 0 0 0 0 0 0 0 0 0 0 0 0 0 0 0 0 0 0 0 0 0 0 0 0 0 0 0 -0 0 0 0 0 0 0 0 0 0 0 0 0 0
0 0 0 0 0 0 0 0 0 0 0 0 0 0 0 0 0 0 0 0 0 0 0 0 0 0 0 0 0 0 0 0 0 0 0 0 0 0 0 0 0 0 0
0 0 0 0 0 0 0 0 0 0 0 0 0 0 0 0 0 0 0 0 0 0 0 0 0 0 0 0 0 0 0 0 -0 -0 0 0 0 0 0 0 0 0 0
0 0 0 0 0 0 0 0 0 -0 -0 -0 -0 0 0 0 0 0 0 0 0 0 0 0 0 0 0 0 0 0 0 0 0 0 -0 0 0 0 0 0 0 0 0
0 0 0 0 0 0 0 -0 -0 -0 -0 0 0 0 0 0 0 0 0 0 0 0 0 0 0 0 0 0 0 0 0 0 0 0 0 0 -0 -0 0 0 0 0 0
Wind_Speed_500mb
19 32 29 33 32 27 23 22 19 15 11 7 7 7 7 8 10 10 10 12 14 16 13 13 11 10 8 8 8 8 10 14 13 14 13 11 16 18 19 18 20 23 22
16 31 29 29 30 27 24 22 19 14 7 4 4 5 6 7 8 9 10 9 14 14 12 13 12 11 9 9 7 8 10 10 8 7 6 8 9 9 9 9 10 13 17
13 29 30 29 27 26 24 21 20 15 8 3 1 2 2 3 4 7 4 4 10 12 10 11 9 7 8 9 9 7 6 5 4 4 6 8 10 8 3 3 3 3 5
12 25 27 28 26 25 21 20 18 14 9 5 3 4 5 4 2 2 1 8 14 13 9 8 8 6 6 5 5 5 4 3 4 5 6 8 15 11 10 4 3 3 3
11 18 25 26 26 25 23 21 19 16 12 8 7 7 7 6 5 5 8 9 12 10 11 8 6 6 6 5 6 6 6 5 4 5 5 5 3 3 12 13 9 6 9
8 14 23 28 27 26 24 22 21 19 15 12 10 11 10 9 8 9 6 4 11 15 13 9 7 7 8 7 7 10 10 11 9 10 8 8 9 12 16 17 16 14 5
7 8 13 24 29 29 27 24 24 23 19 16 14 14 15 9 10 12 12 15 21 20 16 14 9 8 8 9 8 9 10 10 11 12 13 13 13 13 15 16 14 15 13
9 4 7 13 24 30 31 28 26 25 24 20 18 15 13 12 13 11 12 15 17 22 20 19 13 11 10 10 8 6 7 7 8 9 11 11 11 12 12 13 14 12 14
5 4 3 7 15 23 29 28 27 27 26 23 19 17 16 15 15 13 14 16 16 18 18 19 17 17 16 13 8 4 3 4 5 7 8 10 11 11 12 12 12 11 12
6 7 10 11 14 19 25 29 31 30 28 26 24 21 19 20 20 21 20 18 18 18 18 17 16 17 17 16 12 7 4 3 5 7 9 10 11 13 14 14 13 13 13
15 15 16 18 18 19 22 26 29 31 31 28 25 23 21 24 29 24 22 21 20 22 21 21 18 17 16 15 14 12 10 8 8 9 10 11 11 12 12 14 14 15 15
21 25 24 24 23 22 21 22 24 26 26 25 28 29 25 28 28 24 22 24 24 24 27 27 21 18 17 16 15 15 15 14 13 12 12 13 14 14 15 15 16 16 17
7 8 18 24 26 26 23 20 20 20 21 26 26 24 27 30 28 26 27 25 26 26 28 31 34 26 21 20 19 19 18 17 17 17 16 15 15 15 14 14 15 17 18
10 13 15 15 22 26 26 23 18 15 17 21 25 23 21 27 32 28 27 28 27 28 30 30 34 36 25 23 22 22 22 22 21 20 19 18 17 17 16 16 16 17 17
11 12 12 12 15 22 29 30 23 16 13 17 19 24 28 23 27 30 28 31 25 26 32 33 34 37 34 29 25 26 27 27 27 25 23 22 21 20 19 18 19 18 18
7 8 10 10 10 11 22 30 25 17 15 14 15 19 23 25 26 27 29 31 31 31 28 30 32 31 32 33 28 30 30 31 32 31 29 27 26 24 23 22 22 22 22
12 12 10 8 6 7 19 32 32 26 21 15 7 4 9 17 18 18 20 24 24 25 31 31 35 36 35 34 33 34 30 32 35 36 37 35 33 31 29 27 25 24 23
15 15 20 17 11 9 15 26 28 23 17 11 8 14 16 16 19 16 19 21 23 24 27 28 32 33 31 34 36 33 36 37 36 37 37 39 40 39 37 34 32 30 28
17 19 22 23 23 25 24 23 24 22 22 13 9 9 13 15 15 22 22 23 27 29 34 34 36 35 38 42 37 35 36 38 42 44 40 39 40 41 41 40 41 39 36
21 23 28 31 32 30 28 27 25 25 24 16 10 5 4 8 13 17 20 21 24 26 27 24 26 26 25 27 33 35 38 38 48 50 52 50 46 44 44 45 45 45 44
33 33 31 28 32 29 27 27 26 26 26 18 11 5 3 7 11 16 17 18 20 25 26 24 26 28 33 38 44 48 45 47 43 46 47 45 41 41 43 45 48 48 46
52 52 51 50 45 43 40 41 38 34 31 24 19 14 12 9 8 6 7 11 15 16 21 24 27 25 28 34 36 44 35 50 45 37 29 25 28 32 32 30 37 45 50
54 50 51 50 46 44 42 40 38 35 35 29 26 22 21 20 18 16 13 11 12 14 15 19 22 25 27 27 29 24 20 17 51 40 44 53 53 56 54 50 45 38 35
47 46 40 38 37 37 33 29 25 26 24 28 25 24 22 22 23 22 23 23 21 22 21 24 25 23 24 27 23 22 23 30 27 34 37 54 58 57 58 59 58 54 50
39 37 34 31 31 30 24 21 23 29 34 30 26 22 23 25 24 25 25 26 26 27 27 26 27 29 30 30 32 34 31 32 32 39 57 65 75 69 58 59 65 67 62
30 30 26 22 24 22 21 23 25 27 26 20 19 16 18 19 20 21 24 26 28 28 30 33 34 33 32 30 28 31 34 36 37 40 51 72 78 74 72 64 54 55 61
Wind_Direction_500mb
174 177 178 171 171 170 171 171 167 156 143 125 110 100 94 84 74 64 49 41 30 23 44 51 54 63 76 87 86 77 83 96 100 114 109 101 72 76 84 95 89 89 86
180 181 178 175 171 170 173 176 178 178 166 135 95 66 55 51 56 56 61 30 5 18 42 52 49 44 45 46 46 78 95 103 96 83 72 48 57 53 69 89 94 99 94
170 182 180 180 179 179 178 181 184 187 188 190 343 1 20 33 40 66 97 349 354 353 16 30 36 40 33 34 36 37 68 83 71 62 48 41 45 31 23 72 80 114 136
142 183 186 185 188 188 188 188 196 209 214 219 270 293 306 314 332 85 329 326 322 327 360 11 13 19 17 17 13 6 14 11 359 354 21 46 58 28 52 36 306 278 255
120 167 193 194 196 198 201 204 209 209 211 242 275 288 288 290 300 316 328 322 317 320 329 344 342 339 334 337 336 325 320 317 319 325 337 355 68 308 345 356 2 280 259
108 146 183 200 204 208 212 212 213 216 227 250 268 280 285 290 294 310 324 309 348 358 356 336 317 317 310 305 301 294 297 295 294 295 297 297 293 297 314 330 337 348 342
67 153 180 201 208 212 219 220 219 225 237 256 271 284 289 289 298 315 317 322 345 354 4 353 328 316 310 310 307 300 293 290 295 294 295 296 295 297 304 310 312 310 307
59 112 189 201 213 220 225 225 227 232 243 257 267 271 266 294 310 316 318 325 331 348 357 355 349 334 327 323 319 307 300 304 306 307 306 304 308 312 315 312 312 309 310
86 107 195 227 223 226 231 233 232 233 242 253 258 259 256 270 292 298 308 315 322 335 345 356 352 342 334 330 329 334 332 334 333 329 328 323 325 328 326 324 321 315 309
206 202 208 222 232 234 233 230 232 239 248 250 252 255 261 264 273 279 289 293 302 313 323 340 348 343 334 330 326 320 310 312 323 324 326 324 323 324 324 324 321 316 310
247 245 236 230 225 233 238 237 235 232 240 245 249 250 250 258 263 269 281 285 296 305 308 315 330 336 323 320 311 304 303 306 308 312 315 315 316 319 320 321 322 319 315
252 252 248 241 234 231 231 237 237 234 235 238 241 240 237 245 256 269 278 281 291 297 307 309 306 319 319 308 297 292 292 296 297 299 302 308 315 319 321 325 323 321 318
313 289 258 250 244 237 229 228 236 236 231 232 244 248 254 252 258 267 276 286 288 290 300 311 317 309 313 308 297 287 283 284 287 290 294 300 305 308 313 318 320 320 320
297 291 289 278 250 244 236 220 224 235 233 238 249 248 267 265 264 272 275 281 292 296 295 303 311 317 304 300 294 285 281 280 281 283 286 288 293 299 304 306 309 313 315
307 300 300 288 264 241 231 225 203 206 214 228 248 255 253 258 275 273 280 279 291 293 294 294 299 304 310 300 297 290 281 275 274 275 276 279 284 289 292 296 299 303 307
326 304 293 290 285 248 220 214 203 199 205 204 205 233 249 253 251 262 274 284 288 288 295 294 296 302 303 299 295 295 290 283 278 274 270 269 271 274 279 285 290 297 304
23 16 352 322 289 233 186 188 190 192 197 194 190 236 240 237 239 250 255 262 265 280 283 298 298 294 294 300 302 301 296 291 286 282 280 277 271 268 267 269 274 281 289
42 43 46 50 70 109 155 175 183 181 181 180 236 257 264 270 269 262 250 258 271 277 273 280 280 278 287 287 285 290 299 299 300 291 284 282 281 279 278 275 272 273 276
78 79 79 81 85 98 115 135 146 142 133 152 206 255 275 282 289 282 293 295 292 288 283 283 280 286 285 281 277 277 281 295 305 307 298 288 281 278 277 278 278 277 275
102 107 99 94 95 95 102 114 125 128 128 139 151 161 249 282 277 282 286 293 295 299 295 301 295 297 288 291 297 298 294 294 295 300 302 300 290 283 278 272 268 271 276
102 106 106 102 96 96 101 109 114 113 109 117 102 77 318 300 297 301 296 298 292 289 295 306 308 307 304 303 302 297 298 303 299 293 293 294 286 285 281 276 273 270 269
100 98 98 95 94 93 90 89 90 94 97 91 83 77 70 62 47 15 334 311 306 304 295 300 305 318 322 323 324 320 312 300 294 293 276 292 290 295 298 299 284 272 268
101 95 92 89 86 83 82 83 85 87 91 94 86 79 67 57 49 41 34 24 3 351 332 329 317 309 308 310 324 329 324 301 307 299 286 288 285 288 292 289 288 288 279
109 105 96 88 86 86 88 91 89 86 74 79 70 64 60 53 47 46 40 36 34 28 17 16 7 358 343 333 325 314 313 310 319 312 302 295 297 293 289 289 287 282 278
111 106 94 86 87 94 96 90 81 74 76 77 69 56 45 39 34 32 29 28 23 23 21 16 11 10 10 2 352 340 326 314 313 311 309 305 304 303 296 289 283 283 284
125 113 100 87 79 79 73 64 54 54 55 55 49 34 29 23 22 21 19 14 14 11 10 8 8 4 4 359 353 347 346 343 330 319 308 310 310 312 310 308 300 292 283
Wind_Speed_850mb
19 32 29 33 32 27 23 22 19 15 11 7 7 7 7 8 10 10 10 12 14 16 13 13 11 10 8 8 8 8 10 14 13 14 13 11 16 18 19 18 20 23 22
16 31 29 29 30 27 24 22 19 14 7 4 4 5 6 7 8 9 10 9 14 14 12 13 12 11 9 9 7 8 10 10 8 7 6 8 9 9 9 9 10 13 17
13 29 30 29 27 26 24 21 20 15 8 3 1 2 2 3 4 7 4 4 10 12 10 11 9 7 8 9 9 7 6 5 4 4 6 8 10 8 3 3 3 3 5
12 25 27 28 26 25 21 20 18 14 9 5 3 4 5 4 2 2 1 8 14 13 9 8 8 6 6 5 5 5 4 3 4 5 6 8 15 11 10 4 3 3 3
11 18 25 26 26 25 23 21 19 16 12 8 7 7 7 6 5 5 8 9 12 10 11 8 6 6 6 5 6 6 6 5 4 5 5 5 3 3 12 13 9 6 9
8 14 23 28 27 26 24 22 21 19 15 12 10 11 10 9 8 9 6 4 11 15 13 9 7 7 8 7 7 10 10 11 9 10 8 8 9 12 16 17 16 14 5
7 8 13 24 29 29 27 24 24 23 19 16 14 14 15 9 10 12 12 15 21 20 16 14 9 8 8 9 8 9 10 10 11 12 13 13 13 13 15 16 14 15 13
9 4 7 13 24 30 31 28 26 25 24 20 18 15 13 12 13 11 12 15 17 22 20 19 13 11 10 10 8 6 7 7 8 9 11 11 11 12 12 13 14 12 14
5 4 3 7 15 23 29 28 27 27 26 23 19 17 16 15 15 13 14 16 16 18 18 19 17 17 16 13 8 4 3 4 5 7 8 10 11 11 12 12 12 11 12
6 7 10 11 14 19 25 29 31 30 28 26 24 21 19 20 20 21 20 18 18 18 18 17 16 17 17 16 12 7 4 3 5 7 9 10 11 13 14 14 13 13 13
15 15 16 18 18 19 22 26 29 31 31 28 25 23 21 24 29 24 22 21 20 22 21 21 18 17 16 15 14 12 10 8 8 9 10 11 11 12 12 14 14 15 15
21 25 24 24 23 22 21 22 24 26 26 25 28 29 25 28 28 24 22 24 24 24 27 27 21 18 17 16 15 15 15 14 13 12 12 13 14 14 15 15 16 16 17
7 8 18 24 26 26 23 20 20 20 21 26 26 24 27 30 28 26 27 25 26 26 28 31 34 26 21 20 19 19 18 17 17 17 16 15 15 15 14 14 15 17 18
10 13 15 15 22 26 26 23 18 15 17 21 25 23 21 27 32 28 27 28 27 28 30 30 34 36 25 23 22 22 22 22 21 20 19 18 17 17 16 16 16 17 17
11 12 12 12 15 22 29 30 23 16 13 17 19 24 28 23 27 30 28 31 25 26 32 33 34 37 34 29 25 26 27 27 27 25 23 22 21 20 19 18 19 18 18
7 8 10 10 10 11 22 30 25 17 15 14 15 19 23 25 26 27 29 31 31 31 28 30 32 31 32 33 28 30 30 31 32 31 29 27 26 24 23 22 22 22 22
12 12 10 8 6 7 19 32 32 26 21 15 7 4 9 17 18 18 20 24 24 25 31 31 35 36 35 34 33 34 30 32 35 36 37 35 33 31 29 27 25 24 23
15 15 20 17 11 9 15 26 28 23 17 11 8 14 16 16 19 16 19 21 23 24 27 28 32 33 31 34 36 33 36 37 36 37 37 39 40 39 37 34 32 30 28
17 19 22 23 23 25 24 23 24 22 22 13 9 9 13 15 15 22 22 23 27 29 34 34 36 35 38 42 37 35 36 38 42 44 40 39 40 41 41 40 41 39 36
21 23 28 31 32 30 28 27 25 25 24 16 10 5 4 8 13 17 20 21 24 26 27 24 26 26 25 27 33 35 38 38 48 50 52 50 46 44 44 45 45 45 44
33 33 31 28 32 29 27 27 26 26 26 18 11 5 3 7 11 16 17 18 20 25 26 24 26 28 33 38 44 48 45 47 43 46 47 45 41 41 43 45 48 48 46
52 52 51 50 45 43 40 41 38 34 31 24 19 14 12 9 8 6 7 11 15 16 21 24 27 25 28 34 36 44 35 50 45 37 29 25 28 32 32 30 37 45 50
54 50 51 50 46 44 42 40 38 35 35 29 26 22 21 20 18 16 13 11 12 14 15 19 22 25 27 27 29 24 20 17 51 40 44 53 53 56 54 50 45 38 35
47 46 40 38 37 37 33 29 25 26 24 28 25 24 22 22 23 22 23 23 21 22 21 24 25 23 24 27 23 22 23 30 27 34 37 54 58 57 58 59 58 54 50
39 37 34 31 31 30 24 21 23 29 34 30 26 22 23 25 24 25 25 26 26 27 27 26 27 29 30 30 32 34 31 32 32 39 57 65 75 69 58 59 65 67 62
30 30 26 22 24 22 21 23 25 27 26 20 19 16 18 19 20 21 24 26 28 28 30 33 34 33 32 30 28 31 34 36 37 40 51 72 78 74 72 64 54 55 61
Wind_Direction_850mb
174 177 178 171 171 170 171 171 167 156 143 125 110 100 94 84 74 64 49 41 30 23 44 51 54 63 76 87 86 77 83 96 100 114 109 101 72 76 84 95 89 89 86
180 181 178 175 171 170 173 176 178 178 166 135 95 66 55 51 56 56 61 30 5 18 42 52 49 44 45 46 46 78 95 103 96 83 72 48 57 53 69 89 94 99 94
170 182 180 180 179 179 178 181 184 187 188 190 343 1 20 33 40 66 97 349 354 353 16 30 36 40 33 34 36 37 68 83 71 62 48 41 45 31 23 72 80 114 136
142 183 186 185 188 188 188 188 196 209 214 219 270 293 306 314 332 85 329 326 322 327 360 11 13 19 17 17 13 6 14 11 359 354 21 46 58 28 52 36 306 278 255
120 167 193 194 196 198 201 204 209 209 211 242 275 288 288 290 300 316 328 322 317 320 329 344 342 339 334 337 336 325 320 317 319 325 337 355 68 308 345 356 2 280 259
108 146 183 200 204 208 212 212 213 216 227 250 268 280 285 290 294 310 324 309 348 358 356 336 317 317 310 305 301 294 297 295 294 295 297 297 293 297 314 330 337 348 342
67 153 180 201 208 212 219 220 219 225 237 256 271 284 289 289 298 315 317 322 345 354 4 353 328 316 310 310 307 300 293 290 295 294 295 296 295 297 304 310 312 310 307
59 112 189 201 213 220 225 225 227 232 243 257 267 271 266 294 310 316 318 325 331 348 357 355 349 334 327 323 319 307 300 304 306 307 306 304 308 312 315 312 312 309 310
86 107 195 227 223 226 231 233 232 233 242 253 258 259 256 270 292 298 308 315 322 335 345 356 352 342 334 330 329 334 332 334 333 329 328 323 325 328 326 324 321 315 309
206 202 208 222 232 234 233 230 232 239 248 250 252 255 261 264 273 279 289 293 302 313 323 340 348 343 334 330 326 320 310 312 323 324 326 324 323 324 324 324 321 316 310
247 245 236 230 225 233 238 237 235 232 240 245 249 250 250 258 263 269 281 285 296 305 308 315 330 336 323 320 311 304 303 306 308 312 315 315 316 319 320 321 322 319 315
252 252 248 241 234 231 231 237 237 234 235 238 241 240 237 245 256 269 278 281 291 297 307 309 306 319 319 308 297 292 292 296 297 299 302 308 315 319 321 325 323 321 318
313 289 258 250 244 237 229 228 236 236 231 232 244 248 254 252 258 267 276 286 288 290 300 311 317 309 313 308 297 287 283 284 287 290 294 300 305 308 313 318 320 320 320
297 291 289 278 250 244 236 220 224 235 233 238 249 248 267 265 264 272 275 281 292 296 295 303 311 317 304 300 294 285 281 280 281 283 286 288 293 299 304 306 309 313 315
307 300 300 288 264 241 231 225 203 206 214 228 248 255 253 258 275 273 280 279 291 293 294 294 299 304 310 300 297 290 281 275 274 275 276 279 284 289 292 296 299 303 307
326 304 293 290 285 248 220 214 203 199 205 204 205 233 249 253 251 262 274 284 288 288 295 294 296 302 303 299 295 295 290 283 278 274 270 269 271 274 279 285 290 297 304
23 16 352 322 289 233 186 188 190 192 197 194 190 236 240 237 239 250 255 262 265 280 283 298 298 294 294 300 302 301 296 291 286 282 280 277 271 268 267 269 274 281 289
42 43 46 50 70 109 155 175 183 181 181 180 236 257 264 270 269 262 250 258 271 277 273 280 280 278 287 287 285 290 299 299 300 291 284 282 281 279 278 275 272 273 276
78 79 79 81 85 98 115 135 146 142 133 152 206 255 275 282 289 282 293 295 292 288 283 283 280 286 285 281 277 277 281 295 305 307 298 288 281 278 277 278 278 277 275
102 107 99 94 95 95 102 114 125 128 128 139 151 161 249 282 277 282 286 293 295 299 295 301 295 297 288 291 297 298 294 294 295 300 302 300 290 283 278 272 268 271 276
102 106 106 102 96 96 101 109 114 113 109 117 102 77 318 300 297 301 296 298 292 289 295 306 308 307 304 303 302 297 298 303 299 293 293 294 286 285 281 276 273 270 269
100 98 98 95 94 93 90 89 90 94 97 91 83 77 70 62 47 15 334 311 306 304 295 300 305 318 322 323 324 320 312 300 294 293 276 292 290 295 298 299 284 272 268
101 95 92 89 86 83 82 83 85 87 91 94 86 79 67 57 49 41 34 24 3 351 332 329 317 309 308 310 324 329 324 301 307 299 286 288 285 288 292 289 288 288 279
109 105 96 88 86 86 88 91 89 86 74 79 70 64 60 53 47 46 40 36 34 28 17 16 7 358 343 333 325 314 313 310 319 312 302 295 297 293 289 289 287 282 278
111 106 94 86 87 94 96 90 81 74 76 77 69 56 45 39 34 32 29 28 23 23 21 16 11 10 10 2 352 340 326 314 313 311 309 305 304 303 296 289 283 283 284
125 113 100 87 79 79 73 64 54 54 55 55 49 34 29 23 22 21 19 14 14 11 10 8 8 4 4 359 353 347 346 343 330 319 308 310 310 312 310 308 300 292 283